User: anonymous   Login
Location: York
(31.8935°S, 116.7682°E)
Time: 09:22:36
(UTC+08:00)
Language:

DUCHIFAT 1 - Orbit

View from above orbital plane
View from above orbital plane
View from above satellite
View from above satellite

Ground track
Ground track

The orbit data is extracted from the following two-line orbital elements,

1 40021U 14033M   21206.30855743  .00000862  00000-0  92109-4 0  9995
2 40021  97.9734 146.9066 0013934  44.2171 316.0158 14.91395252385921
Epoch (UTC): 25 July 2021 07:24:19
Eccentricity: 0.0013934
inclination: 97.9734°
perigee height: 584 km
apogee height: 603 km
right ascension of ascending node: 146.9066°
argument of perigee: 44.2171°
revolutions per day: 14.91395252
mean anomaly at epoch: 316.0158°
orbit number at epoch: 38592

The dashed part of the orbit path shows where the satellite is in the earth's shadow,  

DLR